sat.trackr.live / text

‹ back to catalog

STARLINK-11645 [DTC]

NORAD 63316 · 2025-057K

PAYLOAD ACTIVE UNKNOWN

§ Identity

Operator
Country
US
Launch date
2025-03-18
Launch site
AFETR
Launch vehicle
Mass (kg)
RCS (m²)

Purposes: comms

External: N2YO · Heavens-Above · Gunter

§ Orbital elements

Epoch: 2026-05-25T02:39:17.021088Z

Period
91.67 min
Inclination
43.0010°
Eccentricity
0.0004317
Mean motion
15.70844776 rev/d
Perigee alt
353.6 km
Apogee alt
359.4 km
Semi-major
6,734.6 km
B*
1.2412e-3
RAAN
164.1563°
Arg perigee
294.1814°
Mean anomaly
65.8602°
Rev number
6,922

§ Raw data

STARLINK-11645 [DTC]1 63316U 25057K   26145.11061367  .00162035  00000+0  12412-2 0  99992 63316  43.0010 164.1563 0004317 294.1814  65.8602 15.70844776 69224

JSON: /api/v1/satellites/63316 · /tle

For live sub-satellite position, see the globe view (requires WebGL).

§ Visibility from observer

Set your observer location to see the next 7 days of passes ≥ 10°. The values pass through the URL so the page stays shareable.

No JS? Fill the form by hand. The geolocation button needs JavaScript.